FCN587 MSLP-TFFF

Flight info

Callsign FCN587
Flight time N/A
Altitude 33000
Route VITAN2W VITAN UA754 TNT UA552 PERSI/N0462F320 UA552 PZA/N0461F330 DCT KILER DCT OTAMO DCT PERSO UA511 BOGSI DCT SOMON SOMON2X
Aircraft A321/M-SDE3FGHIRWY/LB1

Departure

Time 2026-04-17 22:02
Airport El Salvador International Airport Saint Óscar Arnulfo Romero y Galdámez (MSLP)

Arrival

Time N/A
Airport Martinique Aimé Césaire International Airport (TFFF)
Time Latitude Longitude Altitude Speed Heading
2026-04-17 21:41 13.44381 -89.05803 92 ft 0 kts 341°
2026-04-17 21:51 13.44376 -89.05801 91 ft 2 kts 341°
2026-04-17 21:51 13.44357 -89.05795 91 ft 3 kts 341°
2026-04-17 21:52 13.44338 -89.05788 91 ft 3 kts 341°
2026-04-17 21:52 13.44319 -89.05782 91 ft 3 kts 352°
2026-04-17 21:52 13.44301 -89.05782 91 ft 3 kts 32°
2026-04-17 21:52 13.44294 -89.05789 93 ft 1 kts 70°
2026-04-17 21:53 13.44286 -89.05809 91 ft 1 kts 70°
2026-04-17 21:53 13.44286 -89.05812 93 ft 1 kts 70°
2026-04-17 21:55 13.44286 -89.05811 93 ft 0 kts 70°
2026-04-17 21:55 13.44288 -89.05804 91 ft 5 kts 70°
2026-04-17 21:56 13.44306 -89.05756 91 ft 7 kts 70°
2026-04-17 21:56 13.44321 -89.05712 93 ft 8 kts 70°
2026-04-17 21:56 13.44350 -89.05633 92 ft 13 kts 70°
2026-04-17 21:56 13.44379 -89.05553 92 ft 11 kts 70°
2026-04-17 21:57 13.44402 -89.05487 92 ft 10 kts 70°
2026-04-17 21:57 13.44413 -89.05420 93 ft 9 kts 112°
2026-04-17 21:57 13.44376 -89.05384 94 ft 6 kts 137°
2026-04-17 21:57 13.44369 -89.05327 92 ft 14 kts 77°
2026-04-17 21:58 13.44403 -89.05229 94 ft 14 kts 70°
2026-04-17 21:58 13.44432 -89.05145 94 ft 11 kts 70°
2026-04-17 21:58 13.44463 -89.05060 94 ft 17 kts 70°
2026-04-17 21:58 13.44507 -89.04938 93 ft 18 kts 69°
2026-04-17 21:59 13.44547 -89.04828 93 ft 15 kts 69°
2026-04-17 21:59 13.44588 -89.04714 93 ft 21 kts 70°
2026-04-17 21:59 13.44636 -89.04578 93 ft 19 kts 70°
2026-04-17 21:59 13.44679 -89.04456 94 ft 17 kts 70°
2026-04-17 22:00 13.44718 -89.04348 92 ft 15 kts 70°
2026-04-17 22:00 13.44724 -89.04257 95 ft 12 kts 126°
2026-04-17 22:00 13.44667 -89.04224 98 ft 7 kts 159°
2026-04-17 22:00 13.44627 -89.04209 99 ft 8 kts 161°
2026-04-17 22:01 13.44580 -89.04216 100 ft 6 kts 217°
2026-04-17 22:01 13.44562 -89.04251 100 ft 5 kts 249°
2026-04-17 22:01 13.44549 -89.04288 101 ft 8 kts 251°
2026-04-17 22:01 13.44474 -89.04500 101 ft 64 kts 250°
2026-04-17 22:02 13.44253 -89.05119 98 ft 119 kts 250°
2026-04-17 22:02 13.43914 -89.06065 92 ft 162 kts 249°
2026-04-17 22:02 13.43498 -89.07224 421 ft 175 kts 248°
2026-04-17 22:02 13.43095 -89.08382 979 ft 174 kts 248°
2026-04-17 22:03 13.42679 -89.09554 1521 ft 175 kts 247°
2026-04-17 22:03 13.42239 -89.10733 1941 ft 183 kts 245°
2026-04-17 22:03 13.41609 -89.11935 2190 ft 201 kts 237°
2026-04-17 22:03 13.40709 -89.13122 2338 ft 222 kts 227°
2026-04-17 22:04 13.39481 -89.14239 2406 ft 252 kts 216°
2026-04-17 22:04 13.37893 -89.15149 2731 ft 266 kts 204°
2026-04-17 22:04 13.36110 -89.15701 3273 ft 269 kts 189°
2026-04-17 22:04 13.34238 -89.15845 3788 ft 272 kts 176°
2026-04-17 22:05 13.32364 -89.15549 4318 ft 275 kts 161°
2026-04-17 22:05 13.30595 -89.14801 4848 ft 276 kts 149°
2026-04-17 22:05 13.29031 -89.13657 5407 ft 277 kts 136°
2026-04-17 22:05 13.27751 -89.12180 5951 ft 278 kts 122°
2026-04-17 22:06 13.26834 -89.10464 6469 ft 278 kts 108°
2026-04-17 22:06 13.26311 -89.08569 7014 ft 276 kts 95°
2026-04-17 22:06 13.26239 -89.06609 7555 ft 275 kts 82°
2026-04-17 22:06 13.26607 -89.04682 8060 ft 276 kts 70°
2026-04-17 22:07 13.27384 -89.02883 8599 ft 277 kts 60°
2026-04-17 22:07 13.28320 -89.01149 9154 ft 278 kts 60°
2026-04-17 22:07 13.29257 -88.99410 9720 ft 280 kts 60°
2026-04-17 22:07 13.30201 -88.97657 10187 ft 283 kts 60°
2026-04-17 22:08 13.31186 -88.95830 10308 ft 301 kts 60°
2026-04-17 22:08 13.32228 -88.93899 10433 ft 317 kts 60°
2026-04-17 22:08 13.33321 -88.91873 10529 ft 333 kts 60°
2026-04-17 22:08 13.34461 -88.89755 10764 ft 343 kts 60°
2026-04-17 22:09 13.35621 -88.87593 11213 ft 347 kts 60°
2026-04-17 22:09 13.36776 -88.85437 11632 ft 351 kts 60°
2026-04-17 22:09 13.37957 -88.83229 12050 ft 355 kts 60°
2026-04-17 22:09 13.39148 -88.81004 12484 ft 358 kts 60°
2026-04-17 22:10 13.40357 -88.78750 12901 ft 361 kts 60°
2026-04-17 22:10 13.41578 -88.76482 13328 ft 365 kts 61°
2026-04-17 22:10 13.42815 -88.74185 13700 ft 369 kts 60°
2026-04-17 22:10 13.44056 -88.71874 14097 ft 371 kts 61°
2026-04-17 22:11 13.45306 -88.69542 14496 ft 373 kts 61°
2026-04-17 22:11 13.46554 -88.67207 14939 ft 373 kts 61°
2026-04-17 22:11 13.47805 -88.64864 15327 ft 375 kts 62°
2026-04-17 22:11 13.49062 -88.62512 15722 ft 376 kts 62°
2026-04-17 22:12 13.50329 -88.60152 16164 ft 377 kts 62°
2026-04-17 22:12 13.51594 -88.57794 16598 ft 377 kts 62°
2026-04-17 22:12 13.52857 -88.55418 16920 ft 380 kts 64°
2026-04-17 22:12 13.53933 -88.52939 17305 ft 381 kts 68°
2026-04-17 22:13 13.54972 -88.50428 17642 ft 383 kts 68°
2026-04-17 22:13 13.56010 -88.47940 17989 ft 385 kts 68°
2026-04-17 22:13 13.57068 -88.45400 18223 ft 388 kts 68°
2026-04-17 22:13 13.58135 -88.42839 18478 ft 391 kts 67°
2026-04-17 22:14 13.59209 -88.40264 18753 ft 393 kts 67°
2026-04-17 22:14 13.60293 -88.37677 19033 ft 395 kts 67°
2026-04-17 22:14 13.61378 -88.35082 19313 ft 396 kts 67°
2026-04-17 22:14 13.62466 -88.32474 19581 ft 398 kts 67°
2026-04-17 22:15 13.63556 -88.29857 19846 ft 399 kts 67°
2026-04-17 22:15 13.64649 -88.27231 20113 ft 401 kts 67°
2026-04-17 22:15 13.65749 -88.24589 20393 ft 402 kts 67°
2026-04-17 22:15 13.66850 -88.21943 20659 ft 403 kts 67°
2026-04-17 22:16 13.67960 -88.19283 20923 ft 405 kts 67°
2026-04-17 22:16 13.69070 -88.16618 21170 ft 407 kts 67°
2026-04-17 22:16 13.70171 -88.13972 21428 ft 408 kts 67°
2026-04-17 22:16 13.71290 -88.11281 21673 ft 410 kts 67°
2026-04-17 22:17 13.72411 -88.08586 21926 ft 411 kts 67°
2026-04-17 22:17 13.73543 -88.05873 22165 ft 413 kts 67°
2026-04-17 22:17 13.74676 -88.03160 22418 ft 414 kts 67°
2026-04-17 22:17 13.75816 -88.00425 22655 ft 416 kts 67°
2026-04-17 22:18 13.76952 -87.97686 22894 ft 417 kts 67°
2026-04-17 22:18 13.78088 -87.94937 23170 ft 419 kts 67°
2026-04-17 22:18 13.79229 -87.92179 23412 ft 420 kts 67°
2026-04-17 22:18 13.80379 -87.89403 23603 ft 422 kts 67°
2026-04-17 22:19 13.81529 -87.86623 23788 ft 423 kts 67°
2026-04-17 22:19 13.82668 -87.83867 24000 ft 425 kts 67°
2026-04-17 22:19 13.83824 -87.81067 24184 ft 426 kts 67°
2026-04-17 22:19 13.84987 -87.78252 24376 ft 428 kts 66°
2026-04-17 22:20 13.86153 -87.75431 24574 ft 429 kts 67°
2026-04-17 22:20 13.87130 -87.72533 24777 ft 430 kts 71°
2026-04-17 22:20 13.88045 -87.69594 24993 ft 432 kts 71°
2026-04-17 22:20 13.88964 -87.66645 25183 ft 433 kts 71°
2026-04-17 22:21 13.89888 -87.63691 25343 ft 435 kts 71°
2026-04-17 22:21 13.90825 -87.60720 25537 ft 436 kts 70°
2026-04-17 22:21 13.91773 -87.57749 25733 ft 438 kts 70°
2026-04-17 22:21 13.92729 -87.54771 25949 ft 439 kts 70°
2026-04-17 22:22 13.93693 -87.51781 26142 ft 441 kts 70°
2026-04-17 22:22 13.94645 -87.48828 26329 ft 442 kts 70°
2026-04-17 22:22 13.95609 -87.45821 26506 ft 443 kts 70°
2026-04-17 22:22 13.96573 -87.42800 26679 ft 445 kts 70°
2026-04-17 22:23 13.97537 -87.39770 26866 ft 446 kts 70°
2026-04-17 22:23 13.98503 -87.36734 27034 ft 448 kts 70°
2026-04-17 22:23 13.99472 -87.33682 27196 ft 449 kts 70°
2026-04-17 22:23 14.00445 -87.30622 27354 ft 450 kts 70°
2026-04-17 22:24 14.01422 -87.27550 27537 ft 452 kts 70°
2026-04-17 22:24 14.02354 -87.24448 27685 ft 454 kts 75°
2026-04-17 22:24 14.02865 -87.21273 27840 ft 458 kts 83°
2026-04-17 22:24 14.02948 -87.17981 27972 ft 461 kts 87°
2026-04-17 22:25 14.02972 -87.14679 28119 ft 462 kts 87°
2026-04-17 22:25 14.03001 -87.11363 28273 ft 464 kts 87°
2026-04-17 22:25 14.03037 -87.08044 28397 ft 465 kts 87°
2026-04-17 22:25 14.03075 -87.04707 28549 ft 466 kts 87°
2026-04-17 22:26 14.03112 -87.01364 28693 ft 467 kts 87°
2026-04-17 22:26 14.03146 -86.98009 28830 ft 469 kts 87°
2026-04-17 22:26 14.03177 -86.94647 28951 ft 470 kts 87°
2026-04-17 22:26 14.03206 -86.91277 29102 ft 472 kts 87°
2026-04-17 22:27 14.03235 -86.87892 29262 ft 473 kts 87°
2026-04-17 22:27 14.03264 -86.84504 29477 ft 473 kts 87°
2026-04-17 22:27 14.03294 -86.81166 29688 ft 473 kts 86°
2026-04-17 22:27 14.03327 -86.77780 29851 ft 472 kts 86°
2026-04-17 22:28 14.03360 -86.74400 30043 ft 473 kts 86°
2026-04-17 22:28 14.03394 -86.71014 30227 ft 473 kts 86°
2026-04-17 22:28 14.03427 -86.67632 30408 ft 472 kts 86°
2026-04-17 22:28 14.03460 -86.64249 30580 ft 472 kts 86°
2026-04-17 22:29 14.03494 -86.60866 30756 ft 472 kts 86°
2026-04-17 22:29 14.03526 -86.57488 30944 ft 472 kts 86°
2026-04-17 22:29 14.03556 -86.54107 31135 ft 472 kts 86°
2026-04-17 22:29 14.03587 -86.50735 31328 ft 472 kts 86°
2026-04-17 22:30 14.03618 -86.47357 31513 ft 471 kts 86°
2026-04-17 22:30 14.03649 -86.43989 31707 ft 471 kts 86°
2026-04-17 22:30 14.03678 -86.40655 31898 ft 471 kts 86°
2026-04-17 22:30 14.03707 -86.37289 32091 ft 470 kts 86°
2026-04-17 22:31 14.03735 -86.33925 32284 ft 470 kts 86°
2026-04-17 22:31 14.03762 -86.30566 32485 ft 469 kts 86°
2026-04-17 22:31 14.03785 -86.27209 32678 ft 469 kts 86°
2026-04-17 22:31 14.03811 -86.23848 32864 ft 469 kts 86°
2026-04-17 22:32 14.03840 -86.20497 32932 ft 467 kts 86°
2026-04-17 22:32 14.03890 -86.13855 32930 ft 462 kts 85°
2026-04-17 22:33 14.03933 -86.07253 32932 ft 461 kts 86°
2026-04-17 22:33 14.03981 -86.00654 32934 ft 461 kts 86°
2026-04-17 22:34 14.04031 -85.94056 32933 ft 460 kts 86°
2026-04-17 22:34 14.04074 -85.87466 32921 ft 460 kts 86°
2026-04-17 22:35 14.04115 -85.80920 32919 ft 460 kts 86°
2026-04-17 22:35 14.04156 -85.74340 32914 ft 460 kts 86°
2026-04-17 22:36 14.04192 -85.67754 32905 ft 460 kts 86°
2026-04-17 22:36 14.04230 -85.61169 32905 ft 460 kts 86°
2026-04-17 22:37 14.04269 -85.54584 32889 ft 459 kts 86°
2026-04-17 22:37 14.04303 -85.47996 32898 ft 460 kts 86°
2026-04-17 22:38 14.04325 -85.41411 32900 ft 460 kts 86°
2026-04-17 22:38 14.04352 -85.34821 32897 ft 460 kts 86°
2026-04-17 22:39 14.04389 -85.28283 32891 ft 460 kts 86°
2026-04-17 22:39 14.04457 -85.18414 32885 ft 459 kts 86°
2026-04-17 22:40 14.04501 -85.11839 32878 ft 459 kts 86°
2026-04-17 22:40 14.04532 -85.05253 32880 ft 459 kts 86°
2026-04-17 22:41 14.04558 -84.98678 32883 ft 459 kts 86°
2026-04-17 22:41 14.04589 -84.92101 32886 ft 459 kts 86°
2026-04-17 22:42 14.04616 -84.85579 32878 ft 459 kts 86°
2026-04-17 22:42 14.04648 -84.79004 32877 ft 459 kts 86°
2026-04-17 22:43 14.04668 -84.72434 32876 ft 459 kts 86°
2026-04-17 22:43 14.04681 -84.65867 32876 ft 459 kts 86°
2026-04-17 22:44 14.04689 -84.59293 32873 ft 459 kts 86°
2026-04-17 22:44 14.04686 -84.52766 32873 ft 459 kts 86°
2026-04-17 22:45 14.04691 -84.46199 32864 ft 459 kts 86°
2026-04-17 22:45 14.04701 -84.39628 32865 ft 459 kts 86°
2026-04-17 22:46 14.04701 -84.33063 32861 ft 459 kts 86°
2026-04-17 22:46 14.04701 -84.26497 32864 ft 458 kts 86°
2026-04-17 22:47 14.04702 -84.19927 32854 ft 459 kts 86°
2026-04-17 22:47 14.04696 -84.13403 32854 ft 459 kts 86°
2026-04-17 22:48 14.04688 -84.06837 32855 ft 459 kts 86°
2026-04-17 22:48 14.04681 -84.00271 32860 ft 459 kts 86°
2026-04-17 22:49 14.04669 -83.93706 32860 ft 459 kts 86°
2026-04-17 22:49 14.04654 -83.87136 32857 ft 459 kts 86°
2026-04-17 22:50 14.04639 -83.80573 32851 ft 459 kts 86°
2026-04-17 22:50 14.04626 -83.73998 32852 ft 459 kts 86°
2026-04-17 22:51 14.04614 -83.67476 32856 ft 459 kts 86°
2026-04-17 22:51 14.04598 -83.60911 32856 ft 459 kts 86°
2026-04-17 22:52 14.04570 -83.54401 32848 ft 442 kts 86°
2026-04-17 22:52 14.04545 -83.48127 32869 ft 441 kts 86°
2026-04-17 22:53 14.04529 -83.41750 32868 ft 450 kts 86°
2026-04-17 22:53 14.05084 -83.35328 32865 ft 452 kts 77°
2026-04-17 22:54 14.06116 -83.28923 32863 ft 454 kts 77°
2026-04-17 22:54 14.07131 -83.22547 32893 ft 454 kts 77°
2026-04-17 22:55 14.08156 -83.16132 32895 ft 454 kts 77°
2026-04-17 22:55 14.09186 -83.09716 32904 ft 454 kts 77°
2026-04-17 22:56 14.10217 -83.03302 32898 ft 454 kts 77°
2026-04-17 22:56 14.11238 -82.96891 32902 ft 454 kts 77°
2026-04-17 22:57 14.12258 -82.90476 32904 ft 454 kts 77°
2026-04-17 22:57 14.13272 -82.84062 32910 ft 454 kts 77°
2026-04-17 22:58 14.14291 -82.77644 32914 ft 454 kts 78°
2026-04-17 22:58 14.15311 -82.71233 32909 ft 453 kts 78°
2026-04-17 22:59 14.16316 -82.64870 32910 ft 453 kts 78°
2026-04-17 22:59 14.17327 -82.58459 32908 ft 453 kts 78°
2026-04-17 23:00 14.18336 -82.52051 32905 ft 453 kts 78°
2026-04-17 23:00 14.19342 -82.45648 32910 ft 453 kts 78°
2026-04-17 23:01 14.20340 -82.39242 32916 ft 453 kts 78°
2026-04-17 23:01 14.21340 -82.32834 32917 ft 452 kts 78°
2026-04-17 23:02 14.22341 -82.26435 32918 ft 452 kts 78°
2026-04-17 23:02 14.23340 -82.20041 32918 ft 452 kts 78°
2026-04-17 23:03 14.24343 -82.13646 32917 ft 452 kts 78°
2026-04-17 23:03 14.25333 -82.07299 32912 ft 452 kts 78°
2026-04-17 23:04 14.26321 -82.00904 32912 ft 452 kts 78°
2026-04-17 23:04 14.27317 -81.94514 32908 ft 452 kts 78°
2026-04-17 23:05 14.28307 -81.88120 32916 ft 452 kts 78°
2026-04-17 23:05 14.29285 -81.81726 32914 ft 452 kts 78°
2026-04-17 23:06 14.30270 -81.75330 32912 ft 452 kts 78°
2026-04-17 23:06 14.31242 -81.68981 32913 ft 452 kts 78°
2026-04-17 23:07 14.32229 -81.62582 32918 ft 451 kts 78°
2026-04-17 23:07 14.33211 -81.56195 32923 ft 451 kts 78°
2026-04-17 23:08 14.34187 -81.49807 32917 ft 451 kts 78°
2026-04-17 23:08 14.35161 -81.43425 32919 ft 451 kts 78°
2026-04-17 23:09 14.36131 -81.37042 32916 ft 451 kts 78°
2026-04-17 23:09 14.37093 -81.30701 32915 ft 450 kts 78°
2026-04-17 23:10 14.38063 -81.24322 32915 ft 451 kts 78°
2026-04-17 23:10 14.39034 -81.17940 32915 ft 451 kts 78°
2026-04-17 23:11 14.40005 -81.11543 32918 ft 451 kts 78°
2026-04-17 23:11 14.40808 -81.06239 32914 ft 451 kts 79°
2026-04-17 23:12 14.41919 -80.98809 32908 ft 451 kts 79°
2026-04-17 23:12 14.42716 -80.93456 32912 ft 451 kts 79°
2026-04-17 23:13 14.43674 -80.87102 32911 ft 451 kts 78°
2026-04-17 23:13 14.44637 -80.80705 32907 ft 451 kts 78°
2026-04-17 23:14 14.45602 -80.74305 32913 ft 452 kts 78°
2026-04-17 23:14 14.46552 -80.67905 32913 ft 452 kts 79°
2026-04-17 23:15 14.47506 -80.61494 32911 ft 452 kts 78°
2026-04-17 23:15 14.48464 -80.55090 32917 ft 452 kts 79°
2026-04-17 23:16 14.49411 -80.48725 32921 ft 452 kts 79°
2026-04-17 23:16 14.50359 -80.42316 32921 ft 452 kts 79°
2026-04-17 23:17 14.51310 -80.35901 32918 ft 452 kts 79°
2026-04-17 23:17 14.52256 -80.29490 32916 ft 452 kts 79°
2026-04-17 23:18 14.53196 -80.23076 32919 ft 452 kts 79°
2026-04-17 23:18 14.54138 -80.16657 32916 ft 452 kts 79°
2026-04-17 23:19 14.55082 -80.10241 32917 ft 452 kts 79°
2026-04-17 23:19 14.56015 -80.03862 32916 ft 452 kts 79°
2026-04-17 23:20 14.56963 -79.97440 32920 ft 453 kts 79°
2026-04-17 23:20 14.57908 -79.91016 32920 ft 453 kts 79°
2026-04-17 23:21 14.58839 -79.84593 32920 ft 453 kts 79°
2026-04-17 23:21 14.59763 -79.78168 32925 ft 453 kts 79°
2026-04-17 23:22 14.60694 -79.71738 32917 ft 453 kts 79°
2026-04-17 23:22 14.61635 -79.65311 32916 ft 453 kts 79°
2026-04-17 23:23 14.62562 -79.58915 32915 ft 453 kts 79°
2026-04-17 23:23 14.63485 -79.52482 32913 ft 453 kts 79°
2026-04-17 23:24 14.64408 -79.46040 32916 ft 453 kts 79°
2026-04-17 23:24 14.65325 -79.39603 32922 ft 453 kts 79°
2026-04-17 23:25 14.66249 -79.33166 32920 ft 453 kts 78°
2026-04-17 23:25 14.67178 -79.26722 32925 ft 453 kts 78°
2026-04-17 23:26 14.68098 -79.20325 32924 ft 454 kts 78°
2026-04-17 23:26 14.69013 -79.13875 32924 ft 454 kts 78°
2026-04-17 23:27 14.69925 -79.07433 32918 ft 454 kts 78°
2026-04-17 23:27 14.70833 -79.00979 32919 ft 454 kts 78°
2026-04-17 23:28 14.71749 -78.94526 32922 ft 454 kts 78°
2026-04-17 23:28 14.72661 -78.88119 32920 ft 454 kts 78°
2026-04-17 23:29 14.73572 -78.81669 32917 ft 454 kts 78°
2026-04-17 23:29 14.74474 -78.75206 32919 ft 454 kts 78°
2026-04-17 23:30 14.75379 -78.68750 32929 ft 454 kts 78°
2026-04-17 23:30 14.76286 -78.62285 32926 ft 454 kts 78°
2026-04-17 23:31 14.77191 -78.55822 32924 ft 454 kts 78°
2026-04-17 23:31 14.78094 -78.49403 32924 ft 455 kts 78°
2026-04-17 23:32 14.78995 -78.42941 32922 ft 455 kts 78°
2026-04-17 23:32 14.79891 -78.36471 32923 ft 455 kts 78°
2026-04-17 23:33 14.80787 -78.30011 32925 ft 455 kts 78°
2026-04-17 23:33 14.81681 -78.23541 32927 ft 455 kts 78°
2026-04-17 23:34 14.82569 -78.17072 32923 ft 455 kts 78°
2026-04-17 23:34 14.83456 -78.10647 32923 ft 455 kts 78°
2026-04-17 23:35 14.84347 -78.04178 32927 ft 455 kts 78°
2026-04-17 23:35 14.85241 -77.97708 32927 ft 455 kts 78°
2026-04-17 23:36 14.86124 -77.91242 32924 ft 455 kts 79°
2026-04-17 23:36 14.87010 -77.84764 32923 ft 455 kts 79°
2026-04-17 23:37 14.87885 -77.78324 32925 ft 455 kts 79°
2026-04-17 23:37 14.88762 -77.71842 32927 ft 455 kts 79°
2026-04-17 23:38 14.89648 -77.65359 32924 ft 455 kts 78°
2026-04-17 23:38 14.90534 -77.58874 32930 ft 456 kts 79°
2026-04-17 23:39 14.91404 -77.52380 32919 ft 456 kts 79°
2026-04-17 23:39 14.92279 -77.45876 32922 ft 457 kts 79°
2026-04-17 23:40 14.93154 -77.39415 32922 ft 457 kts 79°
2026-04-17 23:40 14.94028 -77.32910 32929 ft 457 kts 79°
2026-04-17 23:41 14.94898 -77.26393 32926 ft 457 kts 79°
2026-04-17 23:41 14.95768 -77.19877 32928 ft 458 kts 79°
2026-04-17 23:42 14.96641 -77.13354 32931 ft 458 kts 79°
2026-04-17 23:42 14.97511 -77.06831 32924 ft 459 kts 79°
2026-04-17 23:43 14.98368 -77.00336 32931 ft 459 kts 79°
2026-04-17 23:43 14.99239 -76.93802 32924 ft 459 kts 79°
2026-04-17 23:44 15.00002 -76.87243 32924 ft 461 kts 85°
2026-04-17 23:44 15.00022 -76.80595 32931 ft 463 kts 87°
2026-04-17 23:45 15.00040 -76.70601 32918 ft 464 kts 87°
2026-04-17 23:46 15.00051 -76.63926 32931 ft 464 kts 87°
2026-04-17 23:46 15.00053 -76.57292 32926 ft 464 kts 87°
2026-04-17 23:47 15.00053 -76.50614 32936 ft 465 kts 87°
2026-04-17 23:47 15.00053 -76.43930 32931 ft 465 kts 87°
2026-04-17 23:48 15.00051 -76.37235 32931 ft 465 kts 87°
2026-04-17 23:48 15.00053 -76.30543 32924 ft 465 kts 87°
2026-04-17 23:49 15.00047 -76.23849 32935 ft 466 kts 87°
2026-04-17 23:49 15.00033 -76.17149 32934 ft 466 kts 87°
2026-04-17 23:50 15.00021 -76.10496 32938 ft 466 kts 87°
2026-04-17 23:50 15.00022 -76.03792 32933 ft 466 kts 87°
2026-04-17 23:51 15.00008 -75.97084 32920 ft 467 kts 87°
2026-04-17 23:51 15.00002 -75.90366 32922 ft 467 kts 87°
2026-04-17 23:52 15.00013 -75.83653 32927 ft 467 kts 87°
2026-04-17 23:52 15.00030 -75.76936 32926 ft 467 kts 87°
2026-04-17 23:53 15.00034 -75.70215 32922 ft 468 kts 87°
2026-04-17 23:53 15.00025 -75.63528 32923 ft 468 kts 87°
2026-04-17 23:54 15.00009 -75.56810 32932 ft 468 kts 87°
2026-04-17 23:54 14.99999 -75.50067 32924 ft 468 kts 87°
2026-04-17 23:55 15.00001 -75.43339 32923 ft 468 kts 87°
2026-04-17 23:55 14.99996 -75.36607 32928 ft 468 kts 87°
2026-04-17 23:56 14.99988 -75.29872 32932 ft 468 kts 87°
2026-04-17 23:56 14.99982 -75.23176 32929 ft 468 kts 87°
2026-04-17 23:57 14.99970 -75.16440 32935 ft 469 kts 87°
2026-04-17 23:57 14.99945 -75.09696 32926 ft 469 kts 87°
2026-04-17 23:58 14.99920 -75.02958 32934 ft 469 kts 87°
2026-04-17 23:58 14.99894 -74.96213 32930 ft 469 kts 87°
2026-04-17 23:59 14.99872 -74.89466 32931 ft 469 kts 87°
2026-04-17 23:59 14.99851 -74.82768 32932 ft 469 kts 87°
2026-04-18 00:00 14.99831 -74.76018 32934 ft 469 kts 87°
2026-04-18 00:00 14.99794 -74.69270 32934 ft 469 kts 88°
2026-04-18 00:01 14.99762 -74.62524 32938 ft 469 kts 87°
2026-04-18 00:01 14.99727 -74.55765 32936 ft 469 kts 87°
2026-04-18 00:02 14.99696 -74.49062 32940 ft 469 kts 87°
2026-04-18 00:02 14.99659 -74.42320 32940 ft 469 kts 88°
2026-04-18 00:03 14.99621 -74.35565 32940 ft 469 kts 88°
2026-04-18 00:03 14.99576 -74.28823 32934 ft 469 kts 88°
2026-04-18 00:04 14.99530 -74.22069 32937 ft 470 kts 88°
2026-04-18 00:04 14.99489 -74.15316 32939 ft 470 kts 88°
2026-04-18 00:05 14.99446 -74.08603 32936 ft 470 kts 88°
2026-04-18 00:05 14.99393 -74.01852 32937 ft 470 kts 88°
2026-04-18 00:06 14.99339 -73.95091 32943 ft 470 kts 88°
2026-04-18 00:06 14.99284 -73.88333 32941 ft 470 kts 88°
2026-04-18 00:07 14.99237 -73.81576 32937 ft 470 kts 88°
2026-04-18 00:07 14.99178 -73.74822 32937 ft 470 kts 88°
2026-04-18 00:08 14.99119 -73.68109 32937 ft 470 kts 88°
2026-04-18 00:08 14.99064 -73.61351 32944 ft 470 kts 88°
2026-04-18 00:09 14.98997 -73.54586 32936 ft 470 kts 88°
2026-04-18 00:09 14.98930 -73.47832 32936 ft 470 kts 88°
2026-04-18 00:10 14.98871 -73.41077 32940 ft 470 kts 88°
2026-04-18 00:10 14.98799 -73.34315 32939 ft 470 kts 88°
2026-04-18 00:11 14.98727 -73.27555 32943 ft 470 kts 88°
2026-04-18 00:11 14.98651 -73.20800 32942 ft 470 kts 88°
2026-04-18 00:12 14.98577 -73.14091 32945 ft 470 kts 88°
2026-04-18 00:12 14.98498 -73.07335 32943 ft 470 kts 88°
2026-04-18 00:13 14.98415 -73.00584 32936 ft 470 kts 88°
2026-04-18 00:13 14.98331 -72.93834 32946 ft 469 kts 88°
2026-04-18 00:14 14.98253 -72.87077 32954 ft 469 kts 88°
2026-04-18 00:14 14.98171 -72.80339 32954 ft 469 kts 88°
2026-04-18 00:15 14.98083 -72.73646 32952 ft 468 kts 88°
2026-04-18 00:15 14.97991 -72.66906 32949 ft 468 kts 88°
2026-04-18 00:16 14.97901 -72.60182 32957 ft 468 kts 88°
2026-04-18 00:16 14.97810 -72.53453 32954 ft 468 kts 87°
2026-04-18 00:17 14.97714 -72.46723 32951 ft 467 kts 87°
2026-04-18 00:17 14.97620 -72.40053 32948 ft 467 kts 87°
2026-04-18 00:18 14.97524 -72.33335 32948 ft 467 kts 87°
2026-04-18 00:18 14.97427 -72.26617 32945 ft 467 kts 88°
2026-04-18 00:19 14.97323 -72.19903 32953 ft 467 kts 87°
2026-04-18 00:19 14.97216 -72.13185 32950 ft 467 kts 88°
2026-04-18 00:20 14.97110 -72.06482 32949 ft 467 kts 87°
2026-04-18 00:20 14.97012 -71.99816 32946 ft 466 kts 87°
2026-04-18 00:21 14.96904 -71.93109 32942 ft 466 kts 88°
2026-04-18 00:21 14.96789 -71.86405 32954 ft 466 kts 88°
2026-04-18 00:22 14.96672 -71.79708 32956 ft 466 kts 88°
2026-04-18 00:22 14.96552 -71.73013 32953 ft 466 kts 88°
2026-04-18 00:23 14.96426 -71.66324 32955 ft 465 kts 88°
2026-04-18 00:23 14.96315 -71.59634 32952 ft 465 kts 88°
2026-04-18 00:24 14.96195 -71.52946 32956 ft 465 kts 88°
2026-04-18 00:24 14.96074 -71.46262 32954 ft 465 kts 88°
2026-04-18 00:25 14.95954 -71.39626 32953 ft 464 kts 88°
2026-04-18 00:25 14.95834 -71.32951 32951 ft 464 kts 88°
2026-04-18 00:26 14.95707 -71.26281 32949 ft 464 kts 88°
2026-04-18 00:26 14.95572 -71.19606 32947 ft 464 kts 88°
2026-04-18 00:27 14.95435 -71.12936 32948 ft 464 kts 88°
2026-04-18 00:27 14.95297 -71.06266 32946 ft 464 kts 88°
2026-04-18 00:28 14.95164 -70.99643 32944 ft 464 kts 88°
2026-04-18 00:28 14.95023 -70.92976 32942 ft 464 kts 88°
2026-04-18 00:29 14.94882 -70.86308 32954 ft 464 kts 88°
2026-04-18 00:29 14.94740 -70.79634 32951 ft 464 kts 88°
2026-04-18 00:30 14.94602 -70.72970 32948 ft 464 kts 88°
2026-04-18 00:30 14.94457 -70.66297 32949 ft 464 kts 88°
2026-04-18 00:31 14.94303 -70.59674 32949 ft 464 kts 89°
2026-04-18 00:31 14.94150 -70.53001 32954 ft 464 kts 89°
2026-04-18 00:32 14.94001 -70.46329 32950 ft 464 kts 89°
2026-04-18 00:32 14.93849 -70.39655 32948 ft 464 kts 89°
2026-04-18 00:33 14.93691 -70.32980 32944 ft 464 kts 89°
2026-04-18 00:33 14.93534 -70.26312 32945 ft 464 kts 89°
2026-04-18 00:34 14.93377 -70.19676 32960 ft 464 kts 90°
2026-04-18 00:34 14.93212 -70.13000 32945 ft 465 kts 90°
2026-04-18 00:35 14.93048 -70.06315 32945 ft 465 kts 90°
2026-04-18 00:35 14.92882 -69.99627 32944 ft 465 kts 90°
2026-04-18 00:36 14.92719 -69.92931 32944 ft 465 kts 90°
2026-04-18 00:36 14.92576 -69.87373 32948 ft 466 kts 90°
2026-04-18 00:37 14.92369 -69.79590 32950 ft 466 kts 90°
2026-04-18 00:37 14.92203 -69.72891 32944 ft 466 kts 90°
2026-04-18 00:38 14.92055 -69.67316 32944 ft 467 kts 90°
2026-04-18 00:38 14.91883 -69.60614 32946 ft 467 kts 90°
2026-04-18 00:39 14.91708 -69.53902 32944 ft 467 kts 90°
2026-04-18 00:39 14.91519 -69.47188 32947 ft 467 kts 91°
2026-04-18 00:40 14.91333 -69.40507 32941 ft 468 kts 91°
2026-04-18 00:40 14.91149 -69.33788 32945 ft 468 kts 91°
2026-04-18 00:41 14.90731 -69.27074 32938 ft 469 kts 100°
2026-04-18 00:41 14.89577 -69.20441 32943 ft 469 kts 100°
2026-04-18 00:42 14.88419 -69.13805 32948 ft 469 kts 100°
2026-04-18 00:42 14.87265 -69.07167 32949 ft 469 kts 100°
2026-04-18 00:43 14.86137 -69.00568 32948 ft 469 kts 100°
2026-04-18 00:43 14.85013 -68.93929 32946 ft 469 kts 100°
2026-04-18 00:44 14.83886 -68.87278 32950 ft 469 kts 100°
2026-04-18 00:44 14.82759 -68.80633 32950 ft 469 kts 100°
2026-04-18 00:45 14.81599 -68.73992 32952 ft 470 kts 101°
2026-04-18 00:45 14.80433 -68.67356 32954 ft 469 kts 101°
2026-04-18 00:46 14.79269 -68.60715 32956 ft 469 kts 101°
2026-04-18 00:46 14.78109 -68.54124 32955 ft 469 kts 101°
2026-04-18 00:47 14.76939 -68.47486 32952 ft 470 kts 101°
2026-04-18 00:47 14.75762 -68.40842 32949 ft 470 kts 101°
2026-04-18 00:48 14.74591 -68.34193 32951 ft 471 kts 101°